When you browse on this site, cookies collect data to enhance your experience and personalize the content and advertising you see.
Visit our Privacy Policy to learn more. By continuing to use the site, you agree to this use of cookies and data.
  • în România
  • Lista ţărilor
  • Pe 7 zile
  • Temperatura apei
  • Meteo pe hartă
  • Widget-uri
  • user-avatar
    Intrare

    Meteo pe oră la Sydney

    Astăzi, 7 Decembrie, Sâmbătă

    Timp Temperatura Precipitaţii Vânt Presiune Umiditate
    00:00 +19°C° 0 mm 4 m/s 757 mmHg 81%
    01:00 +19°C° 0 mm 3 m/s 758 mmHg 82%
    02:00 +19°C° 0 mm 3 m/s 758 mmHg 80%
    03:00 +20°C° 0 mm 2 m/s 758 mmHg 78%
    04:00 +19°C° 0 mm 2 m/s 757 mmHg 77%
    05:00 +20°C° 0 mm 2 m/s 758 mmHg 72%
    06:00 +22°C° 0 mm 1 m/s 759 mmHg 67%
    07:00 +22°C° 0 mm 1 m/s 759 mmHg 62%
    08:00 +25°C° 0 mm 2 m/s 759 mmHg 51%
    09:00 +27°C° 0 mm 2 m/s 759 mmHg 39%
    10:00 +30°C° 0 mm 2 m/s 758 mmHg 28%
    11:00 +31°C° 0 mm 3 m/s 758 mmHg 28%
    12:00 +33°C° 0 mm 4 m/s 757 mmHg 28%
    13:00 +33°C° 0 mm 5 m/s 757 mmHg 28%
    14:00 +32°C° 0 mm 5 m/s 757 mmHg 35%
    15:00 +29°C° 0 mm 5 m/s 757 mmHg 41%
    16:00 +27°C° 0 mm 4 m/s 756 mmHg 43%
    17:00 +26°C° 0 mm 4 m/s 757 mmHg 51%
    18:00 +23°C° 0 mm 4 m/s 758 mmHg 59%
    19:00 +22°C° 0 mm 3 m/s 760 mmHg 67%
    20:00 +21°C° 0 mm 3 m/s 760 mmHg 73%
    21:00 +20°C° 0 mm 3 m/s 761 mmHg 79%
    22:00 +20°C° 0 mm 3 m/s 762 mmHg 84%
    23:00 +19°C° 0.1 mm 3 m/s 762 mmHg 85%

    Mâine, 8 Decembrie, Duminică

    Timp Temperatura Precipitaţii Vânt Presiune Umiditate
    00:00 +19°C° 0.1 mm 3 m/s 762 mmHg 86%
    01:00 +19°C° 0.1 mm 4 m/s 762 mmHg 86%
    02:00 +19°C° 0.1 mm 4 m/s 762 mmHg 86%
    03:00 +19°C° 0.1 mm 4 m/s 762 mmHg 86%
    04:00 +19°C° 0.1 mm 4 m/s 762 mmHg 86%
    05:00 +19°C° 0.1 mm 4 m/s 763 mmHg 82%
    06:00 +20°C° 0.1 mm 4 m/s 763 mmHg 79%
    07:00 +21°C° 0.1 mm 4 m/s 764 mmHg 75%
    08:00 +22°C° 0.1 mm 5 m/s 763 mmHg 71%
    09:00 +22°C° 0.1 mm 5 m/s 763 mmHg 67%
    10:00 +23°C° 0.1 mm 5 m/s 763 mmHg 63%
    11:00 +25°C° 0 mm 5 m/s 763 mmHg 59%
    12:00 +26°C° 0 mm 6 m/s 763 mmHg 54%
    13:00 +27°C° 0 mm 6 m/s 763 mmHg 50%
    14:00 +27°C° 0 mm 6 m/s 762 mmHg 51%
    15:00 +27°C° 0 mm 7 m/s 762 mmHg 52%
    16:00 +26°C° 0 mm 7 m/s 762 mmHg 54%
    17:00 +24°C° 0 mm 6 m/s 763 mmHg 59%
    18:00 +23°C° 0 mm 6 m/s 764 mmHg 65%
    19:00 +21°C° 0 mm 6 m/s 764 mmHg 71%
    20:00 +21°C° 0 mm 5 m/s 765 mmHg 75%
    21:00 +20°C° 0 mm 4 m/s 765 mmHg 78%
    22:00 +20°C° 0 mm 4 m/s 766 mmHg 82%
    23:00 +19°C° 0 mm 4 m/s 765 mmHg 82%

    Poimâine, 9 Decembrie, Luni

    Timp Temperatura Precipitaţii Vânt Presiune Umiditate
    00:00 +19°C° 0 mm 3 m/s 765 mmHg 83%
    01:00 +19°C° 0 mm 3 m/s 765 mmHg 83%
    02:00 +20°C° 0 mm 3 m/s 765 mmHg 83%
    03:00 +20°C° 0 mm 3 m/s 765 mmHg 82%
    04:00 +20°C° 0 mm 3 m/s 764 mmHg 82%
    05:00 +21°C° 0 mm 4 m/s 765 mmHg 77%
    06:00 +22°C° 0 mm 4 m/s 765 mmHg 73%
    07:00 +23°C° 0 mm 4 m/s 765 mmHg 69%
    08:00 +26°C° 0 mm 5 m/s 765 mmHg 62%
    09:00 +28°C° 0 mm 6 m/s 764 mmHg 54%
    10:00 +30°C° 0 mm 6 m/s 764 mmHg 47%
    11:00 +32°C° 0 mm 7 m/s 763 mmHg 45%
    12:00 +33°C° 0 mm 7 m/s 762 mmHg 43%
    13:00 +34°C° 0 mm 8 m/s 762 mmHg 40%
    14:00 +33°C° 0 mm 8 m/s 761 mmHg 44%
    15:00 +32°C° 0 mm 8 m/s 760 mmHg 48%
    16:00 +29°C° 0 mm 9 m/s 760 mmHg 52%
    17:00 +28°C° 0 mm 8 m/s 760 mmHg 59%
    18:00 +26°C° 0 mm 7 m/s 760 mmHg 65%
    19:00 +24°C° 0 mm 7 m/s 760 mmHg 71%
    20:00 +23°C° 0 mm 6 m/s 760 mmHg 75%
    21:00 +22°C° 0 mm 6 m/s 760 mmHg 78%
    22:00 +22°C° 0 mm 5 m/s 761 mmHg 82%
    23:00 +21°C° 0 mm 4 m/s 760 mmHg 83%

    10 Decembrie, Marţi

    Timp Temperatura Precipitaţii Vânt Presiune Umiditate
    00:00 +21°C° 0 mm 4 m/s 760 mmHg 85%
    01:00 +21°C° 0 mm 3 m/s 759 mmHg 86%
    02:00 +20°C° 0 mm 2 m/s 759 mmHg 87%
    03:00 +20°C° 0 mm 2 m/s 759 mmHg 88%
    04:00 +20°C° 0 mm 2 m/s 758 mmHg 88%
    05:00 +23°C° 0 mm 2 m/s 759 mmHg 77%
    06:00 +25°C° 0 mm 2 m/s 759 mmHg 66%
    07:00 +27°C° 0 mm 2 m/s 759 mmHg 55%
    08:00 +31°C° 0 mm 2 m/s 759 mmHg 42%
    09:00 +37°C° 0 mm 3 m/s 758 mmHg 30%
    10:00 +42°C° 0 mm 3 m/s 758 mmHg 17%
    11:00 +42°C° 0 mm 3 m/s 758 mmHg 18%
    12:00 +42°C° 0 mm 4 m/s 757 mmHg 18%
    13:00 +43°C° 0 mm 5 m/s 756 mmHg 19%
    14:00 +39°C° 0 mm 6 m/s 756 mmHg 29%
    15:00 +35°C° 0 mm 7 m/s 756 mmHg 38%
    16:00 +32°C° 0 mm 8 m/s 755 mmHg 48%
    17:00 +28°C° 0.1 mm 8 m/s 756 mmHg 58%
    18:00 +24°C° 0.1 mm 9 m/s 757 mmHg 68%
    19:00 +22°C° 0.1 mm 9 m/s 758 mmHg 78%
    20:00 +21°C° 0.1 mm 9 m/s 758 mmHg 78%
    21:00 +21°C° 0.1 mm 8 m/s 759 mmHg 78%
    22:00 +20°C° 0.1 mm 7 m/s 760 mmHg 78%
    23:00 +20°C° 0 mm 7 m/s 760 mmHg 78%

    11 Decembrie, Miercuri

    Timp Temperatura Precipitaţii Vânt Presiune Umiditate
    00:00 +19°C° 0 mm 6 m/s 760 mmHg 78%
    01:00 +19°C° 0 mm 6 m/s 759 mmHg 78%
    02:00 +17°C° 0 mm 5 m/s 759 mmHg 79%
    03:00 +17°C° 0 mm 5 m/s 759 mmHg 79%
    04:00 +17°C° 0 mm 5 m/s 759 mmHg 80%
    05:00 +17°C° 0.1 mm 5 m/s 759 mmHg 77%
    06:00 +19°C° 0.1 mm 5 m/s 759 mmHg 74%
    07:00 +20°C° 0.1 mm 4 m/s 760 mmHg 71%
    08:00 +21°C° 0 mm 4 m/s 759 mmHg 66%
    09:00 +23°C° 0 mm 4 m/s 759 mmHg 61%
    10:00 +25°C° 0 mm 4 m/s 759 mmHg 56%
    11:00 +26°C° 0 mm 4 m/s 758 mmHg 54%
    12:00 +27°C° 0 mm 5 m/s 757 mmHg 52%
    13:00 +27°C° 0 mm 5 m/s 756 mmHg 50%
    14:00 +26°C° 0.1 mm 6 m/s 756 mmHg 56%
    15:00 +23°C° 0.1 mm 6 m/s 756 mmHg 62%
    16:00 +22°C° 0.1 mm 7 m/s 755 mmHg 67%
    17:00 +21°C° 0.1 mm 6 m/s 756 mmHg 71%
    18:00 +21°C° 0.1 mm 5 m/s 757 mmHg 75%
    19:00 +20°C° 0.1 mm 4 m/s 758 mmHg 79%
    20:00 +20°C° 0 mm 4 m/s 758 mmHg 81%
    21:00 +19°C° 0 mm 4 m/s 758 mmHg 82%
    22:00 +19°C° 0 mm 4 m/s 758 mmHg 84%
    23:00 +18°C° 0 mm 4 m/s 758 mmHg 85%

    12 Decembrie, Joi

    Timp Temperatura Precipitaţii Vânt Presiune Umiditate
    00:00 +18°C° 0 mm 3 m/s 757 mmHg 86%
    01:00 +17°C° 0 mm 3 m/s 757 mmHg 87%
    02:00 +17°C° 0 mm 3 m/s 757 mmHg 87%
    03:00 +17°C° 0 mm 2 m/s 757 mmHg 86%
    04:00 +17°C° 0 mm 2 m/s 757 mmHg 85%
    05:00 +18°C° 0 mm 2 m/s 757 mmHg 80%
    06:00 +19°C° 0 mm 2 m/s 757 mmHg 76%
    07:00 +20°C° 0 mm 2 m/s 757 mmHg 72%
    08:00 +24°C° 0 mm 2 m/s 757 mmHg 63%
    09:00 +26°C° 0 mm 2 m/s 756 mmHg 55%
    10:00 +29°C° 0 mm 2 m/s 756 mmHg 47%
    11:00 +29°C° 0 mm 3 m/s 755 mmHg 47%
    12:00 +29°C° 0 mm 4 m/s 755 mmHg 47%
    13:00 +29°C° 0 mm 5 m/s 754 mmHg 47%
    14:00 +28°C° 0 mm 5 m/s 754 mmHg 52%
    15:00 +27°C° 0 mm 5 m/s 753 mmHg 56%
    16:00 +26°C° 0 mm 5 m/s 753 mmHg 60%
    17:00 +23°C° 0 mm 6 m/s 754 mmHg 65%
    18:00 +22°C° 0 mm 6 m/s 755 mmHg 70%
    19:00 +21°C° 0 mm 7 m/s 755 mmHg 76%
    20:00 +20°C° 0.1 mm 7 m/s 756 mmHg 75%
    21:00 +20°C° 0.1 mm 7 m/s 757 mmHg 74%
    22:00 +18°C° 0.1 mm 7 m/s 757 mmHg 74%
    23:00 +18°C° 0 mm 7 m/s 757 mmHg 73%
    Arată mai mult